Home > Weather > Xiamen > Past weeks

Flag for China Past Weather in Xiamen, Fujian, China — Yesterday and Last 2 Weeks

Now
88 °F

Passing clouds.


Feels Like: 87 °F
Forecast: 73 / 85 °F
Wind: 10 mph from East

Location: Xiamen Airport

Current Time: Aug 29, 2016 at 1:42:11 PM

Latest Report: Aug 29, 2016 at 1:00 PM


Visibility: N/A

Pressure: 29.74 "Hg

Humidity: 38%

Dew Point: 59 °F

Location of XiamenLocation

Past Weather in Xiamen — Graph

°F

Xiamen Temperature Yesterday

Maximum temperature yesterday: 86 °F (at 9:00 AM)
Minimum temperature yesterday: 77 °F (at 11:00 PM)
Average temperature yesterday: 82 °F

High & Low Weather Summary for the Past Weeks

 TemperatureHumidityPressure
High95 °F (Aug 23, 1:00 PM)100% (Aug 17, 1:00 AM)29.77 "Hg (Aug 17, 1:00 AM)
Low77 °F (Aug 28, 11:00 PM)38% (Aug 29, 12:00 PM)29.50 "Hg (Aug 15, 4:00 PM)
Average85 °F82%29.64 "Hg
* Reported Aug 14 12:00 PM — Aug 29 12:00 PM, Xiamen, Weather by CustomWeather, © 2016

Note: Actual official high and low records may vary slightly from our data, if they occured in-between our weather recording intervals... More about our weather records

Advertising

Xiamen Weather History for the Previous 24 Hours

Scroll right to see more
 ConditionsComfort  
Time TempWeatherWind HumidityBarometerVisibility
12:00 PM
Mon, Aug 29
88 °FPassing clouds.13 mph38%29.77 "HgN/A
11:00 AM86 °FScattered clouds.13 mph52%29.77 "HgN/A
10:00 AM84 °FPassing clouds.15 mph55%29.77 "HgN/A
9:00 AM82 °FSunny.10 mph66%29.77 "Hg10 mi
8:00 AM81 °FSunny.10 mph70%29.77 "Hg10 mi
7:00 AM81 °FSunny.6 mph70%29.77 "Hg10 mi
6:00 AM79 °FSunny.6 mph74%29.77 "Hg10 mi
5:00 AM79 °FPassing clouds.3 mph79%29.74 "HgN/A
4:00 AM79 °FPassing clouds.3 mph79%29.74 "HgN/A
3:00 AM79 °FPassing clouds.3 mph79%29.74 "HgN/A
2:00 AM79 °FPassing clouds.6 mph79%29.74 "HgN/A
1:00 AM79 °FPassing clouds.6 mph84%29.74 "HgN/A
12:00 AM79 °FPassing clouds.6 mph84%29.77 "HgN/A
11:00 PM
Sun, Aug 28
77 °FPassing clouds.6 mph94%29.77 "Hg4 mi
10:00 PM79 °FPassing clouds.8 mph84%29.77 "HgN/A
9:00 PM81 °FPassing clouds.10 mph84%29.74 "HgN/A
8:00 PM81 °FPassing clouds.8 mph84%29.74 "HgN/A
7:00 PM81 °FPartly cloudy.8 mph84%29.74 "HgN/A
6:00 PM81 °FBroken clouds.8 mph89%29.71 "HgN/A
5:00 PM81 °FScattered clouds.8 mph94%29.68 "HgN/A
4:00 PM79 °FSprinkles. Mostly cloudy.8 mph94%29.68 "HgN/A
3:00 PM81 °FMostly cloudy.10 mph89%29.68 "HgN/A
2:00 PM81 °FSprinkles. Mostly cloudy.10 mph89%29.71 "HgN/A
1:00 PM84 °FMostly cloudy.10 mph79%29.71 "HgN/A
Weather by CustomWeather, © 2016

See weather overviewHow to use our weather pages